Time,TemperatureF,DewpointF,PressureIn,WindDirection,WindDirectionDegrees,WindSpeedMPH,WindSpeedGustMPH,Humidity,HourlyPrecipIn,Conditions,Clouds,dailyrainin,SolarRadiationWatts/m^2,SoftwareType,DateUTC
2013-06-19 00:01:00,56.3,50.9,30.03,North,9,4.6,4.6,82,0.00,CLR,,0.00,0.0,WeatherDisplay:10.37,2013-06-19 05:01:00,
2013-06-19 00:06:00,56.1,51.0,30.03,NNE,20,3.5,3.5,83,0.00,CLR,,0.00,0.0,WeatherDisplay:10.37,2013-06-19 05:06:00,
2013-06-19 00:11:00,55.9,51.1,30.03,NNE,33,4.0,4.0,84,0.00,CLR,,0.00,0.0,WeatherDisplay:10.37,2013-06-19 05:11:00,
2013-06-19 00:16:00,55.7,50.9,30.03,North,5,3.5,3.5,84,0.00,CLR,,0.00,0.0,WeatherDisplay:10.37,2013-06-19 05:16:00,
2013-06-19 00:21:00,55.5,51.1,30.03,North,5,3.5,3.5,85,0.00,CLR,,0.00,0.0,WeatherDisplay:10.37,2013-06-19 05:21:00,
2013-06-19 00:26:00,55.3,50.9,30.03,North,11,3.5,3.5,85,0.00,CLR,,0.00,0.0,WeatherDisplay:10.37,2013-06-19 05:26:00,
2013-06-19 00:31:00,55.1,51.0,30.03,NNE,15,3.5,3.5,86,0.00,CLR,,0.00,0.0,WeatherDisplay:10.37,2013-06-19 05:31:00,
2013-06-19 00:36:00,55.0,50.9,30.03,North,10,3.5,3.5,86,0.00,CLR,,0.00,0.0,WeatherDisplay:10.37,2013-06-19 05:36:00,
2013-06-19 00:41:00,54.8,51.0,30.03,NNE,18,3.5,3.5,87,0.00,CLR,,0.00,0.0,WeatherDisplay:10.37,2013-06-19 05:41:00,
2013-06-19 00:46:00,54.8,51.0,30.03,North,9,3.5,3.5,87,0.00,CLR,,0.00,0.0,WeatherDisplay:10.37,2013-06-19 05:46:00,
2013-06-19 00:51:00,54.8,51.0,30.03,North,9,3.5,3.5,87,0.00,CLR,,0.00,0.0,WeatherDisplay:10.37,2013-06-19 05:51:00,
2013-06-19 00:56:00,54.7,51.2,30.03,North,9,3.5,3.5,88,0.00,CLR,,0.00,0.0,WeatherDisplay:10.37,2013-06-19 05:56:00,
2013-06-19 01:01:00,54.7,51.2,30.03,NNE,31,2.3,2.3,88,0.00,CLR,,0.00,0.0,WeatherDisplay:10.37,2013-06-19 06:01:00,
2013-06-19 01:06:00,54.6,51.1,30.03,NNE,31,3.0,3.0,88,0.00,CLR,,0.00,0.0,WeatherDisplay:10.37,2013-06-19 06:06:00,
2013-06-19 01:11:00,54.5,51.0,30.03,NNE,31,2.3,2.3,88,0.00,CLR,,0.00,0.0,WeatherDisplay:10.37,2013-06-19 06:11:00,
2013-06-19 01:16:00,54.5,51.3,30.04,NNE,17,3.5,3.5,89,0.00,CLR,,0.00,0.0,WeatherDisplay:10.37,2013-06-19 06:16:00,
2013-06-19 01:21:00,54.5,51.3,30.04,North,9,3.5,3.5,89,0.00,CLR,,0.00,0.0,WeatherDisplay:10.37,2013-06-19 06:21:00,
2013-06-19 01:26:00,54.5,51.3,30.04,North,9,3.5,3.5,89,0.00,CLR,,0.00,0.0,WeatherDisplay:10.37,2013-06-19 06:26:00,
2013-06-19 01:31:00,54.6,51.7,30.04,North,9,3.5,3.5,90,0.00,CLR,,0.00,0.0,WeatherDisplay:10.37,2013-06-19 06:31:00,
2013-06-19 01:36:00,54.8,51.9,30.04,North,9,3.5,3.5,90,0.00,CLR,,0.00,0.0,WeatherDisplay:10.37,2013-06-19 06:36:00,
2013-06-19 01:41:00,54.9,52.0,30.04,North,9,3.5,3.5,90,0.00,CLR,,0.00,0.0,WeatherDisplay:10.37,2013-06-19 06:41:00,
2013-06-19 01:46:00,55.0,52.1,30.04,North,9,4.6,4.6,90,0.00,CLR,,0.00,0.0,WeatherDisplay:10.37,2013-06-19 06:46:00,
2013-06-19 01:51:00,55.0,52.1,30.04,North,5,3.5,3.5,90,0.00,CLR,,0.00,0.0,WeatherDisplay:10.37,2013-06-19 06:51:00,
2013-06-19 01:56:00,55.0,52.4,30.04,North,10,3.5,3.5,91,0.00,CLR,,0.00,0.0,WeatherDisplay:10.37,2013-06-19 06:56:00,
2013-06-19 02:01:00,55.0,52.1,30.04,NNE,12,3.5,3.5,90,0.00,CLR,,0.00,0.0,WeatherDisplay:10.37,2013-06-19 07:01:00,
2013-06-19 02:06:00,55.1,52.5,30.04,North,5,3.5,3.5,91,0.00,CLR,,0.00,0.0,WeatherDisplay:10.37,2013-06-19 07:06:00,
2013-06-19 02:11:00,55.2,52.6,30.04,North,360,4.6,4.6,91,0.00,CLR,,0.00,0.0,WeatherDisplay:10.37,2013-06-19 07:11:00,
2013-06-19 02:16:00,55.4,52.8,30.04,North,360,5.8,5.8,91,0.00,CLR,,0.00,0.0,WeatherDisplay:10.37,2013-06-19 07:16:00,
2013-06-19 02:21:00,55.7,53.1,30.05,North,355,4.6,4.6,91,0.00,CLR,,0.00,0.0,WeatherDisplay:10.37,2013-06-19 07:21:00,
2013-06-19 02:26:00,55.9,53.3,30.05,North,360,4.6,4.6,91,0.00,CLR,,0.00,0.0,WeatherDisplay:10.37,2013-06-19 07:26:00,
2013-06-19 02:32:00,56.0,53.1,30.05,North,10,4.6,4.6,90,0.00,CLR,,0.00,0.0,WeatherDisplay:10.37,2013-06-19 07:32:00,
2013-06-19 02:37:00,56.2,53.3,30.05,NNE,30,4.6,4.6,90,0.00,CLR,,0.00,0.0,WeatherDisplay:10.37,2013-06-19 07:37:00,
2013-06-19 02:42:00,56.2,53.3,30.04,NNE,12,3.5,3.5,90,0.00,CLR,,0.00,0.0,WeatherDisplay:10.37,2013-06-19 07:42:00,
2013-06-19 02:47:00,56.3,53.4,30.04,NNE,33,3.5,3.5,90,0.00,CLR,,0.00,0.0,WeatherDisplay:10.37,2013-06-19 07:47:00,
2013-06-19 02:52:00,56.2,53.0,30.04,NNE,26,3.5,3.5,89,0.00,CLR,,0.00,0.0,WeatherDisplay:10.37,2013-06-19 07:52:00,
2013-06-19 02:57:00,56.2,53.0,30.04,NNE,28,3.5,3.5,89,0.00,CLR,,0.00,0.0,WeatherDisplay:10.37,2013-06-19 07:57:00,
2013-06-19 03:02:00,56.1,53.2,30.05,NNE,29,3.5,3.5,90,0.00,SCT,,0.00,0.0,WeatherDisplay:10.37,2013-06-19 08:02:00,
2013-06-19 03:07:00,56.0,52.8,30.04,NE,34,4.6,4.6,89,0.00,SCT,,0.00,0.0,WeatherDisplay:10.37,2013-06-19 08:07:00,
2013-06-19 03:12:00,55.9,53.0,30.04,NNE,32,3.5,3.5,90,0.00,SCT,,0.00,0.0,WeatherDisplay:10.37,2013-06-19 08:12:00,
2013-06-19 03:17:00,55.8,52.9,30.04,NNE,30,5.8,5.8,90,0.00,SCT,,0.00,0.0,WeatherDisplay:10.37,2013-06-19 08:17:00,
2013-06-19 03:22:00,55.7,52.8,30.04,NNE,24,4.6,4.6,90,0.00,SCT,,0.00,0.0,WeatherDisplay:10.37,2013-06-19 08:22:00,
2013-06-19 03:27:00,55.7,52.8,30.04,NE,37,3.5,3.5,90,0.00,SCT,,0.00,0.0,WeatherDisplay:10.37,2013-06-19 08:27:00,
2013-06-19 03:32:00,55.7,52.8,30.05,NNE,28,3.5,3.5,90,0.00,CLR,,0.00,0.0,WeatherDisplay:10.37,2013-06-19 08:32:00,
2013-06-19 03:37:00,55.8,53.2,30.05,NNE,32,3.5,3.5,91,0.00,CLR,,0.00,0.0,WeatherDisplay:10.37,2013-06-19 08:37:00,
2013-06-19 03:42:00,55.9,53.3,30.05,NNE,28,3.5,3.5,91,0.00,CLR,,0.00,0.0,WeatherDisplay:10.37,2013-06-19 08:42:00,
2013-06-19 03:47:00,56.0,53.4,30.06,NNE,28,3.5,3.5,91,0.00,CLR,,0.00,0.0,WeatherDisplay:10.37,2013-06-19 08:47:00,
2013-06-19 03:52:00,56.1,53.2,30.06,NNE,23,5.0,5.0,90,0.00,CLR,,0.00,0.0,WeatherDisplay:10.37,2013-06-19 08:52:00,
2013-06-19 03:57:00,56.2,53.3,30.06,NNE,32,4.0,4.0,90,0.00,CLR,,0.00,0.0,WeatherDisplay:10.37,2013-06-19 08:57:00,
2013-06-19 04:02:00,56.3,53.1,30.06,NE,39,4.0,4.0,89,0.00,CLR,,0.00,0.0,WeatherDisplay:10.37,2013-06-19 09:02:00,
2013-06-19 04:07:00,56.2,53.0,30.06,NE,38,3.5,3.5,89,0.00,CLR,,0.00,0.0,WeatherDisplay:10.37,2013-06-19 09:07:00,
2013-06-19 04:12:00,56.1,52.9,30.06,NE,53,4.0,4.0,89,0.00,CLR,,0.00,0.0,WeatherDisplay:10.37,2013-06-19 09:12:00,
2013-06-19 04:17:00,55.9,52.7,30.05,ENE,64,3.5,3.5,89,0.00,BKN,,0.00,0.0,WeatherDisplay:10.37,2013-06-19 09:17:00,
2013-06-19 04:22:00,55.9,52.7,30.06,ENE,71,3.5,3.5,89,0.00,BKN,,0.00,0.0,WeatherDisplay:10.37,2013-06-19 09:22:00,
2013-06-19 04:27:00,55.9,52.4,30.06,ENE,68,3.5,3.5,88,0.00,BKN,,0.00,0.0,WeatherDisplay:10.37,2013-06-19 09:27:00,
2013-06-19 04:32:00,56.0,52.5,30.06,ENE,68,2.3,2.3,88,0.00,SCT,,0.00,0.0,WeatherDisplay:10.37,2013-06-19 09:32:00,
2013-06-19 04:37:00,56.0,52.5,30.06,ENE,68,2.0,0.0,88,0.00,SCT,,0.00,0.0,WeatherDisplay:10.37,2013-06-19 09:37:00,
2013-06-19 04:42:00,55.9,52.1,30.06,ENE,58,2.3,2.3,87,0.00,SCT,,0.00,0.0,WeatherDisplay:10.37,2013-06-19 09:42:00,
2013-06-19 04:47:00,55.8,52.0,30.07,ENE,60,3.5,3.5,87,0.00,SCT,,0.00,0.0,WeatherDisplay:10.37,2013-06-19 09:47:00,
2013-06-19 04:52:00,55.6,51.8,30.07,ENE,62,3.5,3.5,87,0.00,SCT,,0.00,0.0,WeatherDisplay:10.37,2013-06-19 09:52:00,
2013-06-19 04:57:00,55.4,51.9,30.07,ENE,62,2.3,2.3,88,0.00,SCT,,0.00,0.0,WeatherDisplay:10.37,2013-06-19 09:57:00,
2013-06-19 05:02:00,55.2,51.7,30.07,ENE,63,2.3,2.3,88,0.00,CLR,,0.00,0.0,WeatherDisplay:10.37,2013-06-19 10:02:00,
2013-06-19 05:07:00,55.1,51.6,30.07,ENE,78,3.5,3.5,88,0.00,CLR,,0.00,0.0,WeatherDisplay:10.37,2013-06-19 10:07:00,
2013-06-19 05:12:00,54.9,51.7,30.07,ENE,63,3.5,3.5,89,0.00,CLR,,0.00,0.0,WeatherDisplay:10.37,2013-06-19 10:12:00,
2013-06-19 05:17:00,54.8,51.6,30.07,NE,55,3.5,3.5,89,0.00,CLR,,0.00,0.0,WeatherDisplay:10.37,2013-06-19 10:17:00,
2013-06-19 05:22:00,54.9,51.7,30.08,ENE,63,4.6,4.6,89,0.00,CLR,,0.00,0.0,WeatherDisplay:10.37,2013-06-19 10:22:00,
2013-06-19 05:27:00,55.0,51.5,30.08,ENE,70,5.0,5.0,88,0.00,CLR,,0.00,7.0,WeatherDisplay:10.37,2013-06-19 10:27:00,
2013-06-19 05:32:00,55.2,51.7,30.08,ENE,59,3.5,3.5,88,0.00,CLR,,0.00,9.0,WeatherDisplay:10.37,2013-06-19 10:32:00,
2013-06-19 05:37:00,55.3,51.5,30.08,ENE,69,4.6,4.6,87,0.00,CLR,,0.00,11.0,WeatherDisplay:10.37,2013-06-19 10:37:00,
2013-06-19 05:42:00,55.5,51.7,30.08,ENE,63,5.0,5.0,87,0.00,CLR,,0.00,14.0,WeatherDisplay:10.37,2013-06-19 10:42:00,
2013-06-19 05:47:00,55.7,51.9,30.08,ENE,61,6.9,6.9,87,0.00,CLR,,0.00,16.0,WeatherDisplay:10.37,2013-06-19 10:47:00,
2013-06-19 05:52:00,55.9,51.8,30.08,ENE,66,4.6,4.6,86,0.00,CLR,,0.00,19.0,WeatherDisplay:10.37,2013-06-19 10:52:00,
2013-06-19 05:57:00,55.9,51.8,30.08,ENE,64,4.6,4.6,86,0.00,CLR,,0.00,23.0,WeatherDisplay:10.37,2013-06-19 10:57:00,
2013-06-19 06:02:00,56.2,52.1,30.08,ENE,63,5.8,5.8,86,0.00,CLR,,0.00,26.0,WeatherDisplay:10.37,2013-06-19 11:02:00,
2013-06-19 06:07:00,56.4,51.9,30.08,East,80,6.9,6.9,85,0.00,CLR,,0.00,32.0,WeatherDisplay:10.37,2013-06-19 11:07:00,
2013-06-19 06:12:00,56.7,52.2,30.08,NE,49,5.8,5.8,85,0.00,CLR,,0.00,35.0,WeatherDisplay:10.37,2013-06-19 11:12:00,
2013-06-19 06:17:00,57.0,52.2,30.08,East,80,6.9,6.9,84,0.00,CLR,,0.00,39.0,WeatherDisplay:10.37,2013-06-19 11:17:00,
2013-06-19 06:22:00,57.3,52.5,30.08,ENE,75,6.9,6.9,84,0.00,CLR,,0.00,42.0,WeatherDisplay:10.37,2013-06-19 11:22:00,
2013-06-19 06:27:00,57.6,52.5,30.08,ENE,64,9.2,9.2,83,0.00,CLR,,0.00,46.0,WeatherDisplay:10.37,2013-06-19 11:27:00,
2013-06-19 06:32:00,57.9,52.4,30.08,East,82,10.4,10.4,82,0.00,CLR,,0.00,46.0,WeatherDisplay:10.37,2013-06-19 11:32:00,
2013-06-19 06:37:00,58.2,52.7,30.09,ENE,75,6.9,6.9,82,0.00,CLR,,0.00,51.0,WeatherDisplay:10.37,2013-06-19 11:37:00,
2013-06-19 06:42:00,58.4,52.9,30.09,ENE,78,9.2,9.2,82,0.00,CLR,,0.00,54.0,WeatherDisplay:10.37,2013-06-19 11:42:00,
2013-06-19 06:47:00,58.5,53.0,30.09,East,91,8.1,8.1,82,0.00,CLR,,0.00,62.0,WeatherDisplay:10.37,2013-06-19 11:47:00,
2013-06-19 06:52:00,58.3,52.8,30.10,East,80,8.1,8.1,82,0.00,CLR,,0.00,81.0,WeatherDisplay:10.37,2013-06-19 11:52:00,
2013-06-19 06:57:00,58.4,52.9,30.10,ENE,78,9.2,9.2,82,0.00,CLR,,0.00,98.0,WeatherDisplay:10.37,2013-06-19 11:57:00,
2013-06-19 07:02:00,58.6,53.1,30.10,ENE,74,6.9,6.9,82,0.00,SCT,,0.00,113.0,WeatherDisplay:10.37,2013-06-19 12:02:00,
2013-06-19 07:07:00,59.0,53.8,30.10,East,83,7.0,7.0,83,0.00,SCT,,0.00,127.0,WeatherDisplay:10.37,2013-06-19 12:07:00,
2013-06-19 07:12:00,59.8,54.6,30.10,East,83,7.0,7.0,83,0.00,SCT,,0.00,132.0,WeatherDisplay:10.37,2013-06-19 12:12:00,
2013-06-19 07:17:00,60.8,55.3,30.10,ESE,105,8.1,8.1,82,0.00,SCT,,0.00,137.0,WeatherDisplay:10.37,2013-06-19 12:17:00,
2013-06-19 07:22:00,61.4,55.2,30.11,ESE,111,6.9,6.9,80,0.00,SCT,,0.00,128.0,WeatherDisplay:10.37,2013-06-19 12:22:00,
2013-06-19 07:27:00,61.9,55.3,30.11,East,95,8.1,8.1,79,0.00,SCT,,0.00,132.0,WeatherDisplay:10.37,2013-06-19 12:27:00,
2013-06-19 07:32:00,62.4,56.5,30.11,East,101,8.1,8.1,81,0.00,CLR,,0.00,102.0,WeatherDisplay:10.37,2013-06-19 12:32:00,
2013-06-19 07:37:00,62.4,55.4,30.11,ESE,103,11.5,11.5,78,0.00,CLR,,0.00,81.0,WeatherDisplay:10.37,2013-06-19 12:37:00,
2013-06-19 07:42:00,62.0,55.4,30.11,East,98,10.4,10.4,79,0.00,CLR,,0.00,70.0,WeatherDisplay:10.37,2013-06-19 12:42:00,
2013-06-19 07:47:00,61.9,55.7,30.11,ESE,109,8.1,8.1,80,0.00,CLR,,0.00,76.0,WeatherDisplay:10.37,2013-06-19 12:47:00,
2013-06-19 07:52:00,62.7,56.1,30.12,ESE,103,10.4,10.4,79,0.00,CLR,,0.00,77.0,WeatherDisplay:10.37,2013-06-19 12:52:00,
2013-06-19 07:57:00,63.5,56.9,30.12,East,100,8.1,8.1,79,0.00,CLR,,0.00,76.0,WeatherDisplay:10.37,2013-06-19 12:57:00,
2013-06-19 08:02:00,64.1,57.1,30.12,ESE,103,8.0,8.0,78,0.00,CLR,,0.00,74.0,WeatherDisplay:10.37,2013-06-19 13:02:00,
2013-06-19 08:07:00,64.6,57.2,30.12,East,93,9.2,9.2,77,0.00,CLR,,0.00,84.0,WeatherDisplay:10.37,2013-06-19 13:07:00,
2013-06-19 08:12:00,65.1,58.1,30.12,ESE,109,9.2,9.2,78,0.00,CLR,,0.00,114.0,WeatherDisplay:10.37,2013-06-19 13:12:00,
2013-06-19 08:17:00,65.4,58.0,30.11,ESE,109,8.0,8.0,77,0.00,CLR,,0.00,176.0,WeatherDisplay:10.37,2013-06-19 13:17:00,
2013-06-19 08:22:00,65.6,57.8,30.11,East,89,10.4,10.4,76,0.00,CLR,,0.00,264.0,WeatherDisplay:10.37,2013-06-19 13:22:00,
2013-06-19 08:27:00,65.8,58.0,30.12,ESE,115,11.5,11.5,76,0.00,CLR,,0.00,355.0,WeatherDisplay:10.37,2013-06-19 13:27:00,
2013-06-19 08:32:00,66.2,58.0,30.11,ESE,117,10.4,10.4,75,0.00,SCT,,0.00,436.0,WeatherDisplay:10.37,2013-06-19 13:32:00,
2013-06-19 08:37:00,66.6,58.4,30.12,ESE,117,8.1,8.1,75,0.00,SCT,,0.00,483.0,WeatherDisplay:10.37,2013-06-19 13:37:00,
2013-06-19 08:42:00,67.0,58.4,30.11,ESE,105,9.2,9.2,74,0.00,SCT,,0.00,504.0,WeatherDisplay:10.37,2013-06-19 13:42:00,
2013-06-19 08:48:00,67.3,59.1,30.11,ESE,110,8.1,8.1,75,0.00,SCT,,0.00,519.0,WeatherDisplay:10.37,2013-06-19 13:48:00,
2013-06-19 08:53:00,67.4,59.6,30.11,East,96,7.0,7.0,76,0.00,SCT,,0.00,529.0,WeatherDisplay:10.37,2013-06-19 13:53:00,
2013-06-19 08:58:00,67.6,58.6,30.11,East,101,9.2,9.2,73,0.00,SCT,,0.00,545.0,WeatherDisplay:10.37,2013-06-19 13:58:00,
2013-06-19 09:03:00,67.9,58.9,30.11,ESE,111,9.2,9.2,73,0.00,SCT,,0.00,561.0,WeatherDisplay:10.37,2013-06-19 14:03:00,
2013-06-19 09:08:00,68.1,59.5,30.12,East,92,8.1,8.1,74,0.00,SCT,,0.00,573.0,WeatherDisplay:10.37,2013-06-19 14:08:00,
2013-06-19 09:13:00,68.4,59.0,30.11,ESE,109,10.4,10.4,72,0.00,SCT,,0.00,589.0,WeatherDisplay:10.37,2013-06-19 14:13:00,
2013-06-19 09:18:00,68.6,58.8,30.12,East,96,10.4,10.4,71,0.00,SCT,,0.00,601.0,WeatherDisplay:10.37,2013-06-19 14:18:00,
2013-06-19 09:23:00,69.0,59.6,30.12,ESE,110,8.1,8.1,72,0.00,SCT,,0.00,613.0,WeatherDisplay:10.37,2013-06-19 14:23:00,
2013-06-19 09:28:00,69.2,59.0,30.12,East,96,10.4,10.4,70,0.00,SCT,,0.00,624.0,WeatherDisplay:10.37,2013-06-19 14:28:00,
2013-06-19 09:33:00,69.4,59.6,30.12,ESE,121,9.2,9.2,71,0.00,CLR,,0.00,640.0,WeatherDisplay:10.37,2013-06-19 14:33:00,
2013-06-19 09:38:00,69.7,60.7,30.11,ENE,67,6.9,6.9,73,0.00,CLR,,0.00,656.0,WeatherDisplay:10.37,2013-06-19 14:38:00,
2013-06-19 09:43:00,70.1,59.9,30.11,SE,130,10.4,10.4,70,0.00,CLR,,0.00,668.0,WeatherDisplay:10.37,2013-06-19 14:43:00,
2013-06-19 09:48:00,70.3,59.6,30.12,SE,127,8.1,8.1,69,0.00,CLR,,0.00,680.0,WeatherDisplay:10.37,2013-06-19 14:48:00,
2013-06-19 09:53:00,70.6,59.5,30.11,ESE,122,5.8,5.8,68,0.00,CLR,,0.00,691.0,WeatherDisplay:10.37,2013-06-19 14:53:00,
2013-06-19 09:58:00,70.9,60.2,30.11,East,98,8.1,8.1,69,0.00,CLR,,0.00,703.0,WeatherDisplay:10.37,2013-06-19 14:58:00,
2013-06-19 10:03:00,71.2,60.1,30.11,East,91,11.5,11.5,68,0.00,CLR,,0.00,719.0,WeatherDisplay:10.37,2013-06-19 15:03:00,
2013-06-19 10:08:00,71.5,60.0,30.12,East,88,9.2,9.2,67,0.00,CLR,,0.00,722.0,WeatherDisplay:10.37,2013-06-19 15:08:00,
2013-06-19 10:13:00,71.5,60.4,30.12,East,86,8.1,8.1,68,0.00,CLR,,0.00,737.0,WeatherDisplay:10.37,2013-06-19 15:13:00,
2013-06-19 10:18:00,71.9,60.3,30.12,ENE,77,6.9,6.9,67,0.00,CLR,,0.00,749.0,WeatherDisplay:10.37,2013-06-19 15:18:00,
2013-06-19 10:23:00,72.3,60.7,30.12,ESE,123,6.9,6.9,67,0.00,CLR,,0.00,759.0,WeatherDisplay:10.37,2013-06-19 15:23:00,
2013-06-19 10:28:00,72.5,60.9,30.11,East,84,8.1,8.1,67,0.00,CLR,,0.00,768.0,WeatherDisplay:10.37,2013-06-19 15:28:00,
2013-06-19 10:33:00,72.6,60.2,30.11,ESE,121,8.1,8.1,65,0.00,CLR,,0.00,773.0,WeatherDisplay:10.37,2013-06-19 15:33:00,
2013-06-19 10:38:00,72.6,59.3,30.11,SE,142,5.8,5.8,63,0.00,CLR,,0.00,786.0,WeatherDisplay:10.37,2013-06-19 15:38:00,
2013-06-19 10:43:00,72.7,60.3,30.11,ESE,105,6.9,6.9,65,0.00,CLR,,0.00,802.0,WeatherDisplay:10.37,2013-06-19 15:43:00,
2013-06-19 10:48:00,72.8,59.5,30.11,ESE,118,9.2,9.2,63,0.00,CLR,,0.00,807.0,WeatherDisplay:10.37,2013-06-19 15:48:00,
2013-06-19 10:53:00,73.0,60.5,30.11,East,92,9.2,9.2,65,0.00,CLR,,0.00,819.0,WeatherDisplay:10.37,2013-06-19 15:53:00,
2013-06-19 10:58:00,73.2,59.4,30.10,SE,130,6.0,6.0,62,0.00,CLR,,0.00,824.0,WeatherDisplay:10.37,2013-06-19 15:58:00,
2013-06-19 11:03:00,73.3,59.9,30.10,ENE,59,10.4,10.4,63,0.00,SCT,,0.00,838.0,WeatherDisplay:10.37,2013-06-19 16:03:00,
2013-06-19 11:08:00,73.4,60.9,30.10,ESE,106,8.1,8.1,65,0.00,SCT,,0.00,840.0,WeatherDisplay:10.37,2013-06-19 16:08:00,
2013-06-19 11:13:00,73.3,59.5,30.10,East,88,7.0,7.0,62,0.00,SCT,,0.00,858.0,WeatherDisplay:10.37,2013-06-19 16:13:00,
2013-06-19 11:18:00,73.5,60.1,30.10,East,90,6.0,6.0,63,0.00,SCT,,0.00,865.0,WeatherDisplay:10.37,2013-06-19 16:18:00,
2013-06-19 11:23:00,73.7,60.8,30.11,NE,45,6.0,6.0,64,0.00,SCT,,0.00,868.0,WeatherDisplay:10.37,2013-06-19 16:23:00,
2013-06-19 11:28:00,74.2,60.8,30.11,NE,52,9.2,9.2,63,0.00,SCT,,0.00,874.0,WeatherDisplay:10.37,2013-06-19 16:28:00,
2013-06-19 11:33:00,74.4,60.1,30.11,NE,38,8.1,8.1,61,0.00,CLR,,0.00,870.0,WeatherDisplay:10.37,2013-06-19 16:33:00,
2013-06-19 11:38:00,74.4,59.1,30.11,East,90,2.3,2.3,59,0.00,CLR,,0.00,879.0,WeatherDisplay:10.37,2013-06-19 16:38:00,
2013-06-19 11:43:00,74.7,61.3,30.11,ENE,63,6.9,6.9,63,0.00,CLR,,0.00,895.0,WeatherDisplay:10.37,2013-06-19 16:43:00,
2013-06-19 11:48:00,74.9,60.5,30.10,NE,34,9.2,9.2,61,0.00,CLR,,0.00,896.0,WeatherDisplay:10.37,2013-06-19 16:48:00,
2013-06-19 11:53:00,75.0,60.6,30.10,ENE,71,10.4,10.4,61,0.00,CLR,,0.00,907.0,WeatherDisplay:10.37,2013-06-19 16:53:00,
2013-06-19 11:58:00,74.9,60.1,30.10,NE,47,4.6,4.6,60,0.00,CLR,,0.00,909.0,WeatherDisplay:10.37,2013-06-19 16:58:00,
2013-06-19 12:03:00,75.0,59.2,30.10,ESE,115,9.2,9.2,58,0.00,CLR,,0.00,902.0,WeatherDisplay:10.37,2013-06-19 17:03:00,
2013-06-19 12:08:00,75.1,61.2,30.09,ENE,73,5.8,5.8,62,0.00,CLR,,0.00,918.0,WeatherDisplay:10.37,2013-06-19 17:08:00,
2013-06-19 12:13:00,75.3,60.9,30.09,ENE,77,8.0,8.0,61,0.00,CLR,,0.00,921.0,WeatherDisplay:10.37,2013-06-19 17:13:00,
2013-06-19 12:18:00,75.4,60.5,30.09,East,79,6.9,6.9,60,0.00,CLR,,0.00,933.0,WeatherDisplay:10.37,2013-06-19 17:18:00,
2013-06-19 12:23:00,75.4,61.0,30.09,East,86,8.1,8.1,61,0.00,CLR,,0.00,935.0,WeatherDisplay:10.37,2013-06-19 17:23:00,
2013-06-19 12:28:00,75.7,62.7,30.09,East,88,9.2,9.2,64,0.00,CLR,,0.00,930.0,WeatherDisplay:10.37,2013-06-19 17:28:00,
2013-06-19 12:33:00,75.8,61.8,30.09,ESE,119,9.2,9.2,62,0.00,SCT,,0.00,963.0,WeatherDisplay:10.37,2013-06-19 17:33:00,
2013-06-19 12:38:00,75.8,61.4,30.09,ENE,63,9.2,9.2,61,0.00,SCT,,0.00,949.0,WeatherDisplay:10.37,2013-06-19 17:38:00,
2013-06-19 12:43:00,76.0,62.5,30.08,East,80,10.4,10.4,63,0.00,SCT,,0.00,958.0,WeatherDisplay:10.37,2013-06-19 17:43:00,
2013-06-19 12:48:00,75.6,59.8,30.08,NNE,27,9.2,9.2,58,0.00,SCT,,0.00,167.0,WeatherDisplay:10.37,2013-06-19 17:48:00,
2013-06-19 12:53:00,75.2,61.7,30.08,ENE,71,7.0,7.0,63,0.00,SCT,,0.00,1009.0,WeatherDisplay:10.37,2013-06-19 17:53:00,
2013-06-19 12:58:00,75.7,60.4,30.08,NE,51,5.8,5.8,59,0.00,SCT,,0.00,990.0,WeatherDisplay:10.37,2013-06-19 17:58:00,
2013-06-19 13:03:00,76.2,60.8,30.08,SE,128,6.9,6.9,59,0.00,CLR,,0.00,997.0,WeatherDisplay:10.37,2013-06-19 18:03:00,
2013-06-19 13:08:00,76.8,61.9,30.08,East,91,5.0,5.0,60,0.00,CLR,,0.00,1016.0,WeatherDisplay:10.37,2013-06-19 18:08:00,
2013-06-19 13:13:00,77.1,58.6,30.08,SSE,162,5.8,5.8,53,0.00,CLR,,0.00,1014.0,WeatherDisplay:10.37,2013-06-19 18:13:00,
2013-06-19 13:18:00,77.0,59.6,30.08,SSE,168,1.1,1.1,55,0.00,CLR,,0.00,1000.0,WeatherDisplay:10.37,2013-06-19 18:18:00,
2013-06-19 13:23:00,77.2,60.8,30.08,NNE,29,6.9,6.9,57,0.00,CLR,,0.00,983.0,WeatherDisplay:10.37,2013-06-19 18:23:00,
2013-06-19 13:28:00,77.3,59.9,30.08,North,355,6.0,6.0,55,0.00,CLR,,0.00,967.0,WeatherDisplay:10.37,2013-06-19 18:28:00,
2013-06-19 13:33:00,77.5,61.6,30.08,NE,47,4.6,4.6,58,0.00,CLR,,0.00,947.0,WeatherDisplay:10.37,2013-06-19 18:33:00,
2013-06-19 13:38:00,77.9,61.4,30.08,ENE,67,6.9,6.9,57,0.00,CLR,,0.00,998.0,WeatherDisplay:10.37,2013-06-19 18:38:00,
2013-06-19 13:43:00,78.0,61.0,30.08,SE,136,6.9,6.9,56,0.00,CLR,,0.00,1039.0,WeatherDisplay:10.37,2013-06-19 18:43:00,
2013-06-19 13:48:00,78.0,61.5,30.07,East,84,8.0,8.0,57,0.00,CLR,,0.00,1013.0,WeatherDisplay:10.37,2013-06-19 18:48:00,
2013-06-19 13:53:00,77.8,59.8,30.07,ENE,61,4.6,4.6,54,0.00,CLR,,0.00,976.0,WeatherDisplay:10.37,2013-06-19 18:53:00,
2013-06-19 13:58:00,77.8,60.8,30.07,SE,136,0.0,0.4,56,0.00,CLR,,0.00,840.0,WeatherDisplay:10.37,2013-06-19 18:58:00,
2013-06-19 14:03:00,78.0,61.0,30.07,WNW,297,5.8,5.8,56,0.00,CLR,,0.00,990.0,WeatherDisplay:10.37,2013-06-19 19:03:00,
2013-06-19 14:08:00,77.1,58.6,30.07,NNW,342,10.4,10.4,53,0.00,CLR,,0.00,269.0,WeatherDisplay:10.37,2013-06-19 19:08:00,
2013-06-19 14:13:00,77.1,59.2,30.07,East,82,4.6,4.6,54,0.00,CLR,,0.00,204.0,WeatherDisplay:10.37,2013-06-19 19:13:00,
2013-06-19 14:18:00,76.7,58.3,30.07,ENE,63,2.3,2.3,53,0.00,CLR,,0.00,237.0,WeatherDisplay:10.37,2013-06-19 19:18:00,
2013-06-19 14:23:00,77.0,58.0,30.07,NNW,332,4.0,4.0,52,0.00,CLR,,0.00,953.0,WeatherDisplay:10.37,2013-06-19 19:23:00,
2013-06-19 14:28:00,77.6,58.6,30.07,NNW,333,3.5,3.5,52,0.00,CLR,,0.00,990.0,WeatherDisplay:10.37,2013-06-19 19:28:00,
2013-06-19 14:33:00,78.0,59.5,30.07,NW,309,3.5,3.5,53,0.00,CLR,,0.00,940.0,WeatherDisplay:10.37,2013-06-19 19:33:00,
2013-06-19 14:38:00,78.5,57.7,30.07,SSW,213,2.3,2.3,49,0.00,CLR,,0.00,949.0,WeatherDisplay:10.37,2013-06-19 19:38:00,
2013-06-19 14:43:00,79.1,57.1,30.07,NNW,340,4.6,4.6,47,0.00,CLR,,0.00,925.0,WeatherDisplay:10.37,2013-06-19 19:43:00,
2013-06-19 14:49:00,79.4,58.6,30.07,NW,324,4.6,4.6,49,0.00,SCT,,0.00,942.0,WeatherDisplay:10.37,2013-06-19 19:49:00,
2013-06-19 14:54:00,79.2,58.4,30.07,North,349,6.9,6.9,49,0.00,SCT,,0.00,932.0,WeatherDisplay:10.37,2013-06-19 19:54:00,
2013-06-19 14:59:00,79.0,58.8,30.06,NE,53,8.1,8.1,50,0.00,SCT,,0.00,893.0,WeatherDisplay:10.37,2013-06-19 19:59:00,
2013-06-19 15:04:00,79.3,60.1,30.06,ENE,59,8.1,8.1,52,0.00,SCT,,0.00,895.0,WeatherDisplay:10.37,2013-06-19 20:04:00,
2013-06-19 15:09:00,79.2,59.5,30.06,NE,44,5.0,5.0,51,0.00,SCT,,0.00,207.0,WeatherDisplay:10.37,2013-06-19 20:09:00,
2013-06-19 15:14:00,78.3,59.2,30.06,ENE,63,8.1,8.1,52,0.00,SCT,,0.00,221.0,WeatherDisplay:10.37,2013-06-19 20:14:00,
2013-06-19 15:19:00,77.2,58.2,30.06,ENE,71,8.1,8.1,52,0.00,SCT,,0.00,174.0,WeatherDisplay:10.37,2013-06-19 20:19:00,
2013-06-19 15:24:00,76.1,58.2,30.06,East,96,5.8,5.8,54,0.00,SCT,,0.00,178.0,WeatherDisplay:10.37,2013-06-19 20:24:00,
2013-06-19 15:29:00,75.5,58.7,30.06,East,84,8.1,8.1,56,0.00,SCT,,0.00,225.0,WeatherDisplay:10.37,2013-06-19 20:29:00,
2013-06-19 15:34:00,75.5,59.2,30.06,East,92,5.8,5.8,57,0.00,CLR,,0.00,227.0,WeatherDisplay:10.37,2013-06-19 20:34:00,
2013-06-19 15:39:00,75.6,59.3,30.05,East,88,4.6,4.6,57,0.00,CLR,,0.00,824.0,WeatherDisplay:10.37,2013-06-19 20:39:00,
2013-06-19 15:44:00,76.6,61.7,30.05,East,93,5.0,5.0,60,0.00,CLR,,0.00,772.0,WeatherDisplay:10.37,2013-06-19 20:44:00,
2013-06-19 15:49:00,77.6,59.1,30.05,NNW,348,3.5,3.5,53,0.00,SCT,,0.00,752.0,WeatherDisplay:10.37,2013-06-19 20:49:00,
2013-06-19 15:54:00,78.4,58.8,30.05,East,83,6.9,6.9,51,0.00,SCT,,0.00,722.0,WeatherDisplay:10.37,2013-06-19 20:54:00,
2013-06-19 15:59:00,78.8,58.6,30.05,South,181,4.0,4.0,50,0.00,SCT,,0.00,712.0,WeatherDisplay:10.37,2013-06-19 20:59:00,
2013-06-19 16:04:00,79.2,58.4,30.05,East,92,1.1,1.1,49,0.00,CLR,,0.00,693.0,WeatherDisplay:10.37,2013-06-19 21:04:00,
2013-06-19 16:09:00,79.5,58.7,30.05,East,80,2.3,2.3,49,0.00,CLR,,0.00,687.0,WeatherDisplay:10.37,2013-06-19 21:09:00,
2013-06-19 16:14:00,79.8,57.2,30.05,East,96,2.3,2.3,46,0.00,CLR,,0.00,673.0,WeatherDisplay:10.37,2013-06-19 21:14:00,
2013-06-19 16:19:00,80.0,57.4,30.05,South,180,3.5,3.5,46,0.00,CLR,,0.00,657.0,WeatherDisplay:10.37,2013-06-19 21:19:00,
2013-06-19 16:24:00,80.0,58.5,30.05,ESE,118,7.0,7.0,48,0.00,CLR,,0.00,647.0,WeatherDisplay:10.37,2013-06-19 21:24:00,
2013-06-19 16:29:00,79.9,59.0,30.05,NE,45,8.1,8.1,49,0.00,CLR,,0.00,636.0,WeatherDisplay:10.37,2013-06-19 21:29:00,
2013-06-19 16:34:00,79.8,57.8,30.05,East,100,4.0,4.0,47,0.00,CLR,,0.00,619.0,WeatherDisplay:10.37,2013-06-19 21:34:00,
2013-06-19 16:39:00,79.8,60.6,30.04,SSE,163,4.6,4.6,52,0.00,CLR,,0.00,599.0,WeatherDisplay:10.37,2013-06-19 21:39:00,
2013-06-19 16:44:00,79.5,59.2,30.04,ENE,68,5.8,5.8,50,0.00,CLR,,0.00,577.0,WeatherDisplay:10.37,2013-06-19 21:44:00,
2013-06-19 16:49:00,79.5,59.2,30.04,ENE,70,6.9,6.9,50,0.00,CLR,,0.00,578.0,WeatherDisplay:10.37,2013-06-19 21:49:00,
2013-06-19 16:54:00,79.3,60.1,30.04,East,94,4.6,4.6,52,0.00,CLR,,0.00,563.0,WeatherDisplay:10.37,2013-06-19 21:54:00,
2013-06-19 16:59:00,79.2,59.5,30.04,ESE,113,3.5,3.5,51,0.00,CLR,,0.00,548.0,WeatherDisplay:10.37,2013-06-19 21:59:00,
2013-06-19 17:04:00,79.3,56.1,30.04,ENE,78,0.0,0.0,45,0.00,CLR,,0.00,541.0,WeatherDisplay:10.37,2013-06-19 22:04:00,
2013-06-19 17:09:00,79.9,59.0,30.04,East,81,3.5,3.5,49,0.00,CLR,,0.00,508.0,WeatherDisplay:10.37,2013-06-19 22:09:00,
2013-06-19 17:14:00,80.2,59.3,30.04,East,86,5.8,5.8,49,0.00,CLR,,0.00,496.0,WeatherDisplay:10.37,2013-06-19 22:14:00,
2013-06-19 17:19:00,79.8,57.8,30.04,East,85,3.5,3.5,47,0.00,CLR,,0.00,476.0,WeatherDisplay:10.37,2013-06-19 22:19:00,
2013-06-19 17:24:00,79.3,58.5,30.04,NNE,14,3.5,3.5,49,0.00,CLR,,0.00,134.0,WeatherDisplay:10.37,2013-06-19 22:24:00,
2013-06-19 17:29:00,78.7,57.9,30.05,NE,42,3.5,3.5,49,0.00,CLR,,0.00,494.0,WeatherDisplay:10.37,2013-06-19 22:29:00,
2013-06-19 17:34:00,79.1,57.1,30.04,NE,41,4.0,4.0,47,0.00,CLR,,0.00,448.0,WeatherDisplay:10.37,2013-06-19 22:34:00,
2013-06-19 17:39:00,79.2,59.0,30.05,ENE,76,9.0,9.0,50,0.00,CLR,,0.00,424.0,WeatherDisplay:10.37,2013-06-19 22:39:00,
2013-06-19 17:44:00,78.8,58.0,30.04,ENE,65,9.0,9.0,49,0.00,CLR,,0.00,394.0,WeatherDisplay:10.37,2013-06-19 22:44:00,
2013-06-19 17:49:00,78.7,58.5,30.04,NE,45,6.0,6.0,50,0.00,CLR,,0.00,338.0,WeatherDisplay:10.37,2013-06-19 22:49:00,
2013-06-19 17:54:00,78.5,58.3,30.04,NE,47,8.1,8.1,50,0.00,CLR,,0.00,148.0,WeatherDisplay:10.37,2013-06-19 22:54:00,
2013-06-19 17:59:00,77.7,58.7,30.04,NE,55,9.2,9.2,52,0.00,CLR,,0.00,295.0,WeatherDisplay:10.37,2013-06-19 22:59:00,
2013-06-19 18:04:00,77.1,58.1,30.05,NE,49,11.5,11.5,52,0.00,CLR,,0.00,265.0,WeatherDisplay:10.37,2013-06-19 23:04:00,
2013-06-19 18:09:00,76.3,57.4,30.04,NE,40,11.5,11.5,52,0.00,CLR,,0.00,74.0,WeatherDisplay:10.37,2013-06-19 23:09:00,
2013-06-19 18:14:00,76.3,58.4,30.05,NE,42,11.5,11.5,54,0.00,CLR,,0.00,297.0,WeatherDisplay:10.37,2013-06-19 23:14:00,
2013-06-19 18:19:00,76.6,58.7,30.04,NE,53,11.5,11.5,54,0.00,CLR,,0.00,279.0,WeatherDisplay:10.37,2013-06-19 23:19:00,
2013-06-19 18:24:00,76.6,58.7,30.05,NE,35,11.5,11.5,54,0.00,CLR,,0.00,269.0,WeatherDisplay:10.37,2013-06-19 23:24:00,
2013-06-19 18:29:00,76.3,57.9,30.05,ENE,57,12.7,12.7,53,0.00,CLR,,0.00,248.0,WeatherDisplay:10.37,2013-06-19 23:29:00,
2013-06-19 18:34:00,76.0,58.2,30.05,NE,40,13.8,13.8,54,0.00,CLR,,0.00,236.0,WeatherDisplay:10.37,2013-06-19 23:34:00,
2013-06-19 18:39:00,75.8,58.0,30.05,NE,45,11.5,11.5,54,0.00,CLR,,0.00,218.0,WeatherDisplay:10.37,2013-06-19 23:39:00,
2013-06-19 18:44:00,75.6,58.3,30.05,NNE,31,10.4,10.4,55,0.00,CLR,,0.00,195.0,WeatherDisplay:10.37,2013-06-19 23:44:00,
2013-06-19 18:49:00,75.4,57.6,30.05,ENE,61,12.7,12.7,54,0.00,CLR,,0.00,178.0,WeatherDisplay:10.37,2013-06-19 23:49:00,
2013-06-19 18:54:00,75.0,57.2,30.05,ENE,57,11.5,11.5,54,0.00,CLR,,0.00,162.0,WeatherDisplay:10.37,2013-06-19 23:54:00,
2013-06-19 18:59:00,74.8,57.0,30.06,ENE,60,11.5,11.5,54,0.00,CLR,,0.00,137.0,WeatherDisplay:10.37,2013-06-19 23:59:00,
2013-06-19 19:04:00,74.5,56.8,30.06,ENE,62,10.4,10.4,54,0.00,SCT,,0.00,120.0,WeatherDisplay:10.37,2013-06-20 00:04:00,
2013-06-19 19:09:00,74.3,57.1,30.06,NNE,32,10.4,10.4,55,0.00,SCT,,0.00,113.0,WeatherDisplay:10.37,2013-06-20 00:09:00,
2013-06-19 19:14:00,73.9,57.2,30.06,NE,42,11.5,11.5,56,0.00,SCT,,0.00,100.0,WeatherDisplay:10.37,2013-06-20 00:14:00,
2013-06-19 19:19:00,73.6,56.9,30.06,NE,42,10.4,10.4,56,0.00,SCT,,0.00,86.0,WeatherDisplay:10.37,2013-06-20 00:19:00,
2013-06-19 19:24:00,73.2,56.6,30.06,ENE,59,10.4,10.4,56,0.00,SCT,,0.00,76.0,WeatherDisplay:10.37,2013-06-20 00:24:00,
2013-06-19 19:29:00,72.8,56.2,30.06,ENE,63,9.2,9.2,56,0.00,SCT,,0.00,58.0,WeatherDisplay:10.37,2013-06-20 00:29:00,
2013-06-19 19:34:00,72.4,55.3,30.06,ENE,57,11.5,11.5,55,0.00,SCT,,0.00,37.0,WeatherDisplay:10.37,2013-06-20 00:34:00,
2013-06-19 19:39:00,72.0,55.4,30.06,ENE,65,11.5,11.5,56,0.00,SCT,,0.00,33.0,WeatherDisplay:10.37,2013-06-20 00:39:00,
2013-06-19 19:44:00,71.7,55.7,30.06,NE,56,9.2,9.2,57,0.00,SCT,,0.00,28.0,WeatherDisplay:10.37,2013-06-20 00:44:00,
2013-06-19 19:49:00,71.2,55.7,30.06,NE,39,9.2,9.2,58,0.00,SCT,,0.00,26.0,WeatherDisplay:10.37,2013-06-20 00:49:00,
2013-06-19 19:54:00,70.7,54.2,30.06,ENE,60,10.4,10.4,56,0.00,SCT,,0.00,21.0,WeatherDisplay:10.37,2013-06-20 00:54:00,
2013-06-19 19:59:00,70.3,53.9,30.07,NE,46,9.2,9.2,56,0.00,SCT,,0.00,14.0,WeatherDisplay:10.37,2013-06-20 00:59:00,
2013-06-19 20:04:00,69.9,54.0,30.07,NE,39,6.9,7.2,57,0.00,CLR,,0.00,9.0,WeatherDisplay:10.37,2013-06-20 01:04:00,
2013-06-19 20:09:00,69.5,53.6,30.07,NE,36,6.9,6.9,57,0.00,CLR,,0.00,9.0,WeatherDisplay:10.37,2013-06-20 01:09:00,
2013-06-19 20:14:00,69.1,53.7,30.06,NE,48,5.8,5.8,58,0.00,CLR,,0.00,5.0,WeatherDisplay:10.37,2013-06-20 01:14:00,
2013-06-19 20:19:00,68.7,53.8,30.07,NE,46,4.6,4.6,59,0.00,CLR,,0.00,0.0,WeatherDisplay:10.37,2013-06-20 01:19:00,
2013-06-19 20:25:00,68.3,53.9,30.06,NE,44,6.0,6.0,60,0.00,CLR,,0.00,0.0,WeatherDisplay:10.37,2013-06-20 01:25:00,
2013-06-19 20:30:00,68.0,54.0,30.06,NE,55,5.8,5.8,61,0.00,CLR,,0.00,0.0,WeatherDisplay:10.37,2013-06-20 01:30:00,
2013-06-19 20:35:00,67.7,53.3,30.06,NE,48,6.9,6.9,60,0.00,CLR,,0.00,0.0,WeatherDisplay:10.37,2013-06-20 01:35:00,
2013-06-19 20:40:00,67.4,53.5,30.06,NE,44,4.6,4.7,61,0.00,CLR,,0.00,0.0,WeatherDisplay:10.37,2013-06-20 01:40:00,
2013-06-19 20:45:00,67.1,53.2,30.06,NE,51,5.8,5.8,61,0.00,CLR,,0.00,0.0,WeatherDisplay:10.37,2013-06-20 01:45:00,
2013-06-19 20:50:00,66.8,53.4,30.06,NE,52,6.0,6.0,62,0.00,CLR,,0.00,0.0,WeatherDisplay:10.37,2013-06-20 01:50:00,
2013-06-19 20:55:00,66.5,53.1,30.06,NE,55,4.6,4.6,62,0.00,CLR,,0.00,0.0,WeatherDisplay:10.37,2013-06-20 01:55:00,
2013-06-19 21:00:00,66.3,53.3,30.07,NE,46,4.6,4.6,63,0.00,CLR,,0.00,0.0,WeatherDisplay:10.37,2013-06-20 02:00:00,
2013-06-19 21:05:00,66.0,53.5,30.07,ENE,60,6.9,6.9,64,0.00,CLR,,0.00,0.0,WeatherDisplay:10.37,2013-06-20 02:05:00,
2013-06-19 21:10:00,65.8,53.3,30.07,ENE,62,4.6,4.6,64,0.00,CLR,,0.00,0.0,WeatherDisplay:10.37,2013-06-20 02:10:00,
2013-06-19 21:15:00,65.8,53.7,30.07,NE,56,4.6,4.6,65,0.00,CLR,,0.00,0.0,WeatherDisplay:10.37,2013-06-20 02:15:00,
2013-06-19 21:20:00,65.5,53.8,30.07,NE,40,4.0,4.0,66,0.00,CLR,,0.00,0.0,WeatherDisplay:10.37,2013-06-20 02:20:00,
2013-06-19 21:25:00,65.3,53.6,30.07,ENE,66,4.6,4.6,66,0.00,CLR,,0.00,0.0,WeatherDisplay:10.37,2013-06-20 02:25:00,
2013-06-19 21:30:00,65.2,53.6,30.07,NE,56,5.0,5.0,66,0.00,CLR,,0.00,0.0,WeatherDisplay:10.37,2013-06-20 02:30:00,
2013-06-19 21:35:00,65.1,53.9,30.07,ENE,69,4.6,4.6,67,0.00,CLR,,0.00,0.0,WeatherDisplay:10.37,2013-06-20 02:35:00,
2013-06-19 21:40:00,64.9,53.7,30.08,NE,47,6.9,6.9,67,0.00,CLR,,0.00,0.0,WeatherDisplay:10.37,2013-06-20 02:40:00,
2013-06-19 21:45:00,64.8,54.0,30.08,NE,51,4.6,4.6,68,0.00,CLR,,0.00,0.0,WeatherDisplay:10.37,2013-06-20 02:45:00,
2013-06-19 21:50:00,64.7,53.9,30.08,NE,53,4.0,4.0,68,0.00,CLR,,0.00,0.0,WeatherDisplay:10.37,2013-06-20 02:50:00,
2013-06-19 21:55:00,64.5,54.1,30.08,NE,53,3.5,3.5,69,0.00,CLR,,0.00,0.0,WeatherDisplay:10.37,2013-06-20 02:55:00,
2013-06-19 22:00:00,64.2,54.2,30.08,ENE,60,3.5,3.5,70,0.00,CLR,,0.00,0.0,WeatherDisplay:10.37,2013-06-20 03:00:00,
2013-06-19 22:05:00,64.0,54.4,30.08,NE,55,3.5,3.5,71,0.00,CLR,,0.00,0.0,WeatherDisplay:10.37,2013-06-20 03:05:00,
2013-06-19 22:10:00,63.7,54.1,30.08,NE,53,3.5,3.5,71,0.00,CLR,,0.00,0.0,WeatherDisplay:10.37,2013-06-20 03:10:00,
2013-06-19 22:15:00,63.5,54.3,30.08,NE,49,3.5,3.5,72,0.00,CLR,,0.00,0.0,WeatherDisplay:10.37,2013-06-20 03:15:00,
2013-06-19 22:20:00,63.4,54.6,30.09,ENE,59,2.3,2.4,73,0.00,CLR,,0.00,0.0,WeatherDisplay:10.37,2013-06-20 03:20:00,
2013-06-19 22:25:00,63.3,54.5,30.09,ENE,59,3.0,3.0,73,0.00,CLR,,0.00,0.0,WeatherDisplay:10.37,2013-06-20 03:25:00,
2013-06-19 22:30:00,63.1,54.3,30.08,ENE,72,3.5,3.5,73,0.00,CLR,,0.00,0.0,WeatherDisplay:10.37,2013-06-20 03:30:00,
2013-06-19 22:35:00,63.1,54.3,30.08,ENE,72,3.5,3.5,73,0.00,CLR,,0.00,0.0,WeatherDisplay:10.37,2013-06-20 03:35:00,
2013-06-19 22:40:00,62.9,54.1,30.09,East,81,3.5,3.5,73,0.00,CLR,,0.00,0.0,WeatherDisplay:10.37,2013-06-20 03:40:00,
2013-06-19 22:45:00,62.9,54.5,30.09,East,85,3.0,3.0,74,0.00,CLR,,0.00,0.0,WeatherDisplay:10.37,2013-06-20 03:45:00,
2013-06-19 22:50:00,62.8,54.4,30.09,East,84,4.6,4.6,74,0.00,CLR,,0.00,0.0,WeatherDisplay:10.37,2013-06-20 03:50:00,
2013-06-19 22:55:00,62.7,54.3,30.09,East,84,2.3,2.3,74,0.00,CLR,,0.00,0.0,WeatherDisplay:10.37,2013-06-20 03:55:00,
2013-06-19 23:00:00,62.5,54.5,30.09,East,84,3.5,3.5,75,0.00,CLR,,0.00,0.0,WeatherDisplay:10.37,2013-06-20 04:00:00,
2013-06-19 23:01:00,62.6,54.6,30.09,East,84,3.5,3.5,75,0.00,CLR,,0.00,0.0,WeatherDisplay:10.37,2013-06-20 04:01:00,
2013-06-19 23:06:00,62.4,54.4,30.09,East,84,2.3,2.3,75,0.00,SCT,,0.00,0.0,WeatherDisplay:10.37,2013-06-20 04:06:00,
2013-06-19 23:11:00,62.3,53.9,30.08,East,84,2.3,2.3,74,0.00,SCT,,0.00,0.0,WeatherDisplay:10.37,2013-06-20 04:11:00,
2013-06-19 23:16:00,62.4,54.0,30.09,East,84,4.6,4.6,74,0.00,SCT,,0.00,0.0,WeatherDisplay:10.37,2013-06-20 04:16:00,
2013-06-19 23:21:00,62.4,53.6,30.09,East,85,3.5,3.5,73,0.00,SCT,,0.00,0.0,WeatherDisplay:10.37,2013-06-20 04:21:00,
2013-06-19 23:26:00,62.6,53.8,30.08,East,85,2.3,2.3,73,0.00,SCT,,0.00,0.0,WeatherDisplay:10.37,2013-06-20 04:26:00,
2013-06-19 23:31:00,62.7,53.5,30.09,East,85,0.0,0.0,72,0.00,SCT,,0.00,0.0,WeatherDisplay:10.37,2013-06-20 04:31:00,
2013-06-19 23:36:00,62.7,53.9,30.09,East,85,1.1,1.1,73,0.00,SCT,,0.00,0.0,WeatherDisplay:10.37,2013-06-20 04:36:00,
2013-06-19 23:41:00,62.7,53.9,30.08,East,85,0.0,0.0,73,0.00,SCT,,0.00,0.0,WeatherDisplay:10.37,2013-06-20 04:41:00,
2013-06-19 23:46:00,62.7,53.9,30.08,East,85,1.1,0.0,73,0.00,BKN,,0.00,0.0,WeatherDisplay:10.37,2013-06-20 04:46:00,
2013-06-19 23:51:00,62.6,53.8,30.09,East,85,2.3,2.3,73,0.00,BKN,,0.00,0.0,WeatherDisplay:10.37,2013-06-20 04:51:00,
2013-06-19 23:56:00,62.5,54.1,30.09,East,85,3.5,3.5,74,0.00,BKN,,0.00,0.0,WeatherDisplay:10.37,2013-06-20 04:56:00,